Location: Unspecified
(44.4377°N, 88.0525°W)
Time: 00:24:52
(UTC-05:00)

Okean 3 - Visible Passes

Search period start: 01 November 2014 00:00
Search period end: 10 November 2014 23:00
Orbit: 583 x 609 km, 82.5° (Epoch: 31 October)

Date Brightness Start Highest point End Pass type
(mag) Time Alt. Az. Time Alt. Az. Time Alt. Az.
01 Nov 6.8 06:01:18 10° NE 06:02:18 11° ENE 06:03:17 10° ENE visible
02 Nov 6.4 05:09:58 10° NNE 05:12:38 16° ENE 05:15:17 10° ESE visible
03 Nov 5.9 05:19:26 10° NNE 05:22:54 24° ENE 05:26:19 10° SE visible
04 Nov 5.2 05:29:11 10° N 05:33:07 35° ENE 05:37:00 10° SE visible
05 Nov 4.2 05:39:05 10° N 05:43:16 56° E 05:47:24 10° SSE visible
05 Nov 5.0 18:08:35 10° SSE 18:10:15 20° SE 18:10:15 20° SE visible
05 Nov 6.2 19:46:07 10° SW 19:47:02 15° WSW 19:47:02 15° WSW visible
06 Nov 3.5 05:49:07 10° N 05:53:22 88° E 05:57:34 10° S visible
06 Nov 3.8 18:18:11 10° SSE 18:21:59 44° ESE 18:21:59 44° ESE visible
06 Nov 6.3 19:57:06 10° WSW 19:58:46 16° W 19:58:46 16° W visible
07 Nov 6.5 04:23:33 10° NE 04:25:37 13° ENE 04:27:39 10° E visible
07 Nov 3.5 05:59:15 10° NNW 06:03:25 58° W 06:07:32 10° S visible
07 Nov 3.3 18:28:02 10° S 18:32:20 72° E 18:33:41 42° NNE visible
07 Nov 6.7 20:08:49 10° W 20:10:15 11° WNW 20:10:28 11° WNW visible
08 Nov 6.1 04:32:47 10° NNE 04:35:54 20° ENE 04:38:59 10° ESE visible
08 Nov 5.4 17:04:59 10° E 17:05:41 10° E 17:06:23 10° ENE visible
08 Nov 3.6 18:38:06 10° SSW 18:42:24 73° W 18:45:16 21° N visible
09 Nov 5.5 04:42:24 10° NNE 04:46:07 29° ENE 04:49:47 10° SE visible
09 Nov 5.0 17:12:54 10° ESE 17:15:32 16° E 17:18:11 10° NE visible
09 Nov 4.5 18:48:22 10° SSW 18:52:31 46° WNW 18:56:39 10° N visible
10 Nov 4.6 04:52:12 10° N 04:56:16 44° ENE 05:00:17 10° SSE visible
10 Nov 4.6 17:21:58 10° SE 17:25:26 24° E 17:28:54 10° NE visible
10 Nov 5.3 18:58:52 10° SW 19:02:40 30° WNW 19:06:29 10° NNW visible
